CAPE
2534 2539 2539 2302 2270 2324 2140 2186 1972 2125 1560 1318 1198 1110 955 720 615 825 862 706 720 1066 1056 837 815 1007 723 449 478 920 483 641 738 296 954 1274 1270 1454 1140 916 312 430 1
2223 2128 2122 2322 2200 2358 1684 1509 1329 1268 1116 906 710 531 329 308 621 760 758 661 729 809 877 900 550 720 829 1274 1213 1180 940 1360 566 723 573 469 1026 1108 817 576 282 88 6
2011 1891 1880 1920 1793 2093 1378 1223 999 767 504 342 211 174 206 378 639 795 715 728 780 559 721 893 463 774 1176 1206 935 1335 1437 1445 1294 794 30 9 274 178 9 14 9 4 4
1494 1524 1621 1775 1647 1203 979 792 526 324 210 216 238 202 164 252 497 716 710 523 697 330 1067 1009 441 751 1031 1083 1266 1181 1366 1399 920 106 8 6 4 7 5 1 2 2 4
977 1028 1095 1042 916 672 503 376 262 252 222 181 227 491 378 720 349 787 788 698 651 719 875 708 820 531 436 543 1293 1494 1383 1215 279 9 7 7 4 5 2 5 3 2 2
430 378 308 290 223 297 331 697 305 140 556 709 678 491 780 172 1 0 86 665 360 457 705 722 748 240 33 0 0 380 822 936 184 4 8 5 8 4 4 4 3 1 3
209 219 248 289 297 480 441 483 192 946 968 972 808 391 826 71 1 1 0 440 599 619 716 833 680 367 264 259 5 9 0 39 96 147 7 6 5 5 3 3 3 5 5
215 180 144 106 199 278 380 167 1077 1039 798 801 555 787 890 0 1 0 0 243 239 298 294 510 569 261 207 163 330 414 226 216 149 28 10 7 7 8 2 2 4 5 10
203 148 122 122 124 83 92 387 1055 677 757 771 696 759 814 23 1 0 35 44 9 10 81 131 191 65 0 4 131 84 7 0 0 0 1 0 0 0 0 4 3 3 3
198 145 147 137 146 178 292 772 858 525 596 502 695 746 142 45 1 0 19 7 6 4 2 0 0 0 0 0 4 6 4 3 0 1 0 0 0 0 0 1 0 4 1
200 194 138 136 147 554 955 1087 843 372 580 868 701 668 290 93 0 0 2 8 9 12 1 3 4 0 0 0 4 19 4 6 3 7 5 2 0 0 0 3 0 0 0
258 131 314 398 44 370 597 440 379 956 724 739 723 381 198 18 0 0 0 1 0 10 9 4 0 0 0 0 0 0 0 3 6 4 3 2 5 2 0 0 0 37 78
344 486 457 412 525 498 744 696 655 649 452 595 742 373 79 7 0 1 0 0 0 18 8 1 1 0 0 0 0 0 1 6 6 7 5 2 0 0 1 38 54 98 128
252 493 657 624 733 882 652 1090 1196 1344 1080 880 761 504 83 7 4 5 1 0 0 0 0 0 0 0 0 0 0 1 6 8 8 7 4 1 0 5 76 112 130 72 23
432 535 608 88 821 1007 614 548 1186 353 385 797 838 580 109 20 4 2 11 17 17 2 4 8 19 11 9 4 1 1 14 1 16 8 18 29 58 66 58 61 41 1 8
304 544 212 312 371 610 547 207 0 0 2 1 0 88 35 0 0 0 0 0 0 0 28 78 47 22 17 34 62 69 90 31 75 65 64 62 67 62 63 57 31 3 0
945 613 284 281 566 454 461 426 159 0 2 3 1 0 0 0 0 0 0 0 0 0 66 66 33 36 71 38 59 91 77 113 101 74 68 78 95 59 26 17 4 0 0
848 43 258 364 122 759 785 482 439 198 151 0 0 0 0 2 2 0 0 0 2 3 48 49 57 73 90 103 89 78 113 81 89 63 46 70 73 31 13 7 1 1 0
260 197 262 461 381 198 419 513 605 627 302 9 0 0 0 0 1 0 0 10 13 35 20 42 65 61 69 85 109 46 46 50 47 51 70 63 54 41 26 4 1 0 0
217 66 147 503 298 167 391 195 429 669 513 171 197 21 0 1 2 2 1 13 22 27 24 20 28 14 100 108 89 107 119 83 38 47 42 29 19 7 2 0 0 0 0
314 175 241 413 180 315 98 101 292 392 486 338 346 83 0 117 16 13 20 11 13 81 108 111 75 82 104 148 125 98 142 78 97 64 59 39 28 16 6 3 4 3 0
232 39 106 303 242 337 318 219 61 45 96 459 291 5 0 6 329 298 214 167 133 174 226 352 164 160 119 153 197 209 221 208 249 207 160 140 134 130 118 90 76 127 136
229 139 46 162 358 232 277 385 353 199 132 131 433 169 106 376 402 285 245 263 336 374 296 455 315 303 145 91 175 286 403 387 386 301 336 381 385 359 412 432 353 449 482
63 285 345 440 240 242 155 487 636 364 126 94 514 262 219 197 244 718 758 728 879 446 390 390 305 220 200 195 54 44 31 25 207 223 428 439 430 405 422 355 334 413 509
3 1 0 0 0 0 0 0 0 0 0 0 0 0 0 0 0 0 0 0 0 0 0 0 0 0 0 0 0 0 0 0 0 0 113 291 333 499 234 242 332 456 389
0 4 6 6 5 3 3 2 1 1 0 0 0 0 0 0 0 0 0 0 0 0 0 0 0 0 0 0 0 0 0 0 0 0 0 29 196 208 152 243 200 211 176
CIN
-19 -26 -20 -31 -14 -3 -3 -1 0 0 0 0 0 0 0 0 0 -1 0 0 0 0 -1 0 0 -1 0 -9 -2 -6 -17 -4 -1 -10 -4 0 -1 0 0 -6 -39 -19 0
-12 -18 -17 -2 -1 0 -2 -4 -9 -3 -1 -5 -7 -7 -24 -13 0 0 0 0 0 -1 -1 0 0 0 0 -5 -5 -3 -8 0 -13 0 0 0 0 0 0 -7 -31 -50 0
-9 -9 -5 -3 -2 0 -2 0 -3 -7 -20 -32 -60 -54 -23 0 0 0 0 0 -1 -3 -8 -3 0 0 0 0 0 0 0 -1 -2 0 -19 -23 -5 -7 -7 -37 -13 0 0
-24 -18 -7 -1 0 0 0 0 -6 -25 -57 -43 -19 -17 -6 0 -1 -1 0 -2 -1 -20 0 -2 0 -1 0 0 0 0 0 0 -1 -31 -1 -1 0 0 0 0 0 0 0
-32 -31 -10 -3 0 -1 -2 -12 -27 -21 -21 -21 -6 -2 -1 -1 -7 -1 0 0 -1 -5 -2 0 -1 -31 -19 -32 0 0 0 0 -18 -1 0 0 0 0 0 0 0 0 0
-73 -61 -63 -76 -92 -37 -14 -1 -4 -34 -1 -6 -14 0 0 -11 0 0 -57 0 0 -11 0 0 -13 -77 -128 0 0 -77 -11 0 -33 -1 0 0 0 0 0 0 0 0 0
-65 -63 -71 -48 -52 -6 -3 -2 -31 -4 -5 -6 -2 -1 -1 -59 0 0 0 -7 0 -1 -1 0 0 -13 -36 -43 -14 -121 0 -68 -31 -25 0 0 0 0 0 0 0 0 0
-38 -70 -97 -142 -75 -35 -7 -65 -5 -4 -1 0 0 0 0 0 0 0 0 -9 -4 -4 -6 -1 -3 -10 -18 -42 -27 -16 -18 -20 -19 -48 -43 0 0 0 -1 -1 0 0 0
-41 -70 -112 -133 -126 -169 -119 -1 -5 0 0 0 0 0 0 -40 0 0 -35 -24 -44 -35 -9 -6 -15 -13 0 -18 -18 -36 -8 0 0 -1 -22 0 -1 -1 0 0 0 0 0
-39 -58 -89 -105 -128 -88 -12 -8 -4 0 0 -1 0 0 -21 -37 0 0 -35 -52 -6 0 -1 -9 0 0 0 0 -3 -1 0 0 0 0 0 0 0 0 -1 -2 -1 0 0
-22 -46 -84 -91 -101 -2 -3 -15 -2 0 -2 -2 0 0 -2 -20 0 0 -3 -73 -44 -7 0 -1 -16 0 0 0 -2 -1 0 0 0 0 0 0 -1 0 0 -3 0 0 -1
-12 -61 -10 -16 -137 -2 0 0 0 -7 0 0 0 0 -2 -34 0 0 0 0 -1 -44 -2 0 0 0 0 0 0 0 0 0 0 0 0 0 0 0 0 0 0 -1 -1
-1 -3 -2 -8 -7 0 0 0 0 0 0 0 0 -1 -10 0 0 0 0 0 -3 -1 -11 0 0 0 0 0 0 0 0 0 0 0 0 0 -1 0 -1 0 -9 -9 -2
-3 -11 -4 -6 -4 -1 0 -3 0 0 0 0 -2 -4 -5 0 0 0 0 0 0 0 0 0 0 0 0 0 0 -1 0 0 0 0 0 -1 -1 -4 -1 -1 0 0 0
-1 -8 0 -11 -8 0 -58 -2 0 -6 -2 -1 -8 -8 -6 -14 0 -1 -1 0 0 -1 0 0 0 0 0 0 0 -1 0 -1 0 0 -10 0 0 0 0 0 0 0 0
-4 -1 -3 0 0 -3 -1 -13 0 0 0 0 0 -8 -14 -2 0 0 0 0 0 0 -1 0 -4 -25 0 -5 0 -1 0 -5 0 -1 -2 0 0 0 0 0 0 0 0
-4 -1 0 -3 -6 -11 0 0 -9 0 0 0 0 0 0 0 0 0 0 0 0 0 -3 0 0 0 0 -19 -13 -1 -1 0 -4 -1 -2 0 -1 0 -4 -1 0 0 0
-1 -24 -1 -3 -2 -12 -20 -6 -1 -4 0 0 0 0 0 0 0 0 0 0 0 -4 -5 -3 0 0 0 -3 -2 -11 0 -8 -2 -12 -13 -3 0 0 0 0 0 0 0
-1 -1 -1 -1 -4 -3 -43 -38 -14 -1 -1 -61 0 0 0 0 0 0 0 0 0 0 0 0 -3 -8 -21 -32 -10 -23 -11 -29 -17 -10 -3 -1 0 0 0 0 -1 0 0
-5 -63 -89 0 -1 0 -1 -81 -46 -31 -2 -4 -4 -25 0 0 0 0 0 0 0 -2 0 0 -2 -6 -6 -4 -7 -10 -22 -27 0 0 0 0 0 0 0 0 0 0 0
0 -1 -25 -1 -2 -1 -3 -6 0 -1 -9 -14 -9 -70 0 -27 -3 0 -2 -3 -25 -8 -2 -1 -2 0 0 0 -13 -6 -4 -21 -8 -5 -16 -1 -1 0 0 0 0 0 0
-1 -2 -1 -2 0 -1 -1 0 -26 -44 -26 0 -22 -20 0 -8 -3 -1 -1 -16 -20 -12 -2 -8 -28 -18 -15 -6 -1 0 0 -1 0 -2 0 -1 -2 -3 -4 -17 -27 -12 -17
0 -3 0 -2 -2 -9 -1 -1 -1 -4 -12 -21 -8 -52 -90 -13 -15 -1 -5 -5 -2 -1 -10 -6 -1 -2 -10 -13 -6 -1 -1 0 -1 0 -1 0 0 0 0 0 -1 0 -1
-184 -84 -75 -36 -106 -1 -3 -2 -28 -45 -236 -171 -7 -11 -9 -2 -1 -4 -24 -33 -5 0 0 -1 -1 -2 -3 -15 -61 -1 -1 -3 -22 -19 0 -2 -7 -14 -8 -12 -22 -14 -4
0 0 0 0 0 0 0 0 0 0 0 0 0 0 0 0 0 0 0 0 0 0 0 0 0 0 0 0 0 0 0 0 0 0 -78 -35 -24 -4 -31 -28 -16 -7 -12
0 0 0 0 0 0 0 0 0 0 0 0 0 0 0 0 0 0 0 0 0 0 0 0 0 0 0 0 0 0 0 0 0 0 0 -94 -21 -8 -4 0 0 0 -4
Wind_Speed
12 12 12 12 12 10 10 11 12 12 12 11 10 9 9 8 8 8 4 7 9 7 8 8 8 8 6 6 6 4 3 3 4 3 4 5 6 7 9 8 10 9 9
13 12 12 13 12 12 13 13 12 11 10 9 9 9 9 9 9 7 8 8 9 8 9 8 8 8 6 5 6 7 5 6 4 10 6 3 7 8 9 8 7 7 9
17 15 14 11 14 12 12 11 11 10 9 9 9 9 9 9 10 7 7 8 8 7 6 8 7 7 8 4 5 5 5 4 6 7 4 2 4 6 7 7 8 10 7
16 16 13 11 12 12 11 11 10 10 10 9 8 7 5 4 2 4 6 6 7 7 6 8 8 10 8 8 7 6 6 6 7 7 5 3 3 4 5 9 8 7 9
14 14 13 12 12 11 11 10 10 10 9 9 7 4 3 2 3 5 2 1 4 4 5 7 6 3 7 5 4 7 8 8 8 7 5 3 5 4 7 5 10 9 8
12 12 11 11 12 11 10 8 9 9 6 5 6 4 4 7 9 7 5 4 5 2 6 6 7 8 10 13 7 9 7 9 9 8 5 6 5 7 8 9 11 10 5
13 13 12 12 10 8 8 7 10 6 4 5 5 5 7 8 6 6 5 4 3 3 3 5 6 7 7 8 9 12 10 6 10 9 10 8 8 10 10 11 12 9 8
13 12 12 11 11 9 12 10 7 6 7 5 3 6 9 7 6 4 5 6 5 6 4 4 5 7 6 8 9 9 8 9 9 7 11 10 9 10 10 11 11 12 9
13 11 12 14 11 8 11 10 6 8 7 5 4 5 10 8 5 6 7 6 6 5 5 4 5 7 8 7 10 8 9 8 11 16 13 14 13 12 11 12 11 12 8
11 12 11 11 16 11 12 6 6 8 8 5 7 8 11 8 6 4 4 4 7 5 4 5 12 9 7 5 10 9 9 9 12 14 12 12 10 9 7 10 11 11 9
12 11 10 6 10 8 7 6 6 7 6 4 8 8 8 8 7 5 4 4 5 6 4 2 6 8 10 8 10 9 9 11 12 10 9 9 8 7 6 7 7 8 8
13 15 10 9 7 8 8 7 7 5 6 6 6 7 7 8 8 6 6 6 7 6 6 5 5 9 10 10 10 15 15 11 8 8 8 7 7 6 6 7 8 10 8
15 11 13 9 5 9 7 6 4 6 7 6 5 5 6 6 4 7 7 6 6 8 8 9 10 12 12 13 15 14 11 8 9 8 8 7 6 6 7 9 8 7 6
14 8 8 6 6 6 7 5 5 6 4 5 5 4 8 6 6 6 7 8 11 10 11 8 7 8 8 10 9 8 9 9 9 8 8 7 7 7 7 8 9 8 7
14 7 7 8 4 9 9 5 5 7 3 3 4 4 9 7 6 7 7 8 9 9 9 8 7 7 9 6 6 4 8 8 9 10 9 10 10 9 9 8 7 7 7
8 10 7 9 9 6 10 9 15 11 11 10 7 3 7 15 13 10 9 13 17 15 8 9 9 10 9 8 7 10 9 9 8 9 8 8 9 11 10 10 10 9 8
7 9 8 6 11 7 6 9 8 7 14 15 15 11 13 13 12 11 11 13 10 6 4 7 8 8 7 5 6 6 6 8 11 11 10 10 8 10 9 8 9 9 9
9 7 7 9 6 12 6 4 8 9 8 7 13 11 12 11 12 12 13 11 6 3 2 6 8 7 7 8 9 10 9 7 8 7 8 11 10 10 10 8 9 9 9
10 9 6 9 6 10 10 5 4 8 8 10 8 7 9 11 10 8 11 8 7 6 5 5 4 5 5 4 4 5 9 9 9 9 8 8 7 6 7 9 9 10 9
7 6 5 10 7 9 11 8 8 4 8 9 10 10 7 6 7 7 7 5 4 3 5 5 5 3 3 4 4 3 3 3 7 7 7 8 8 8 9 10 10 10 11
8 6 6 6 7 8 9 7 8 10 8 8 10 11 13 11 11 9 9 9 9 8 8 8 8 7 8 7 8 6 6 6 7 9 9 9 9 9 9 10 10 10 11
11 10 7 5 7 5 6 9 8 6 6 11 12 11 11 8 9 10 9 7 7 5 9 11 9 8 7 6 8 7 8 8 8 9 10 10 10 11 11 11 12 11 11
2 12 8 5 8 8 1 5 6 7 8 8 13 11 9 7 6 10 8 5 4 5 6 5 4 3 4 4 4 6 8 9 9 9 10 11 11 11 11 11 12 12 12
13 15 13 12 12 5 3 4 7 8 16 14 9 10 9 6 3 8 8 4 1 3 3 3 4 4 3 4 8 12 12 12 8 9 13 11 12 12 12 13 13 14 13
13 13 13 12 13 12 12 14 14 14 15 14 12 13 13 14 14 14 14 13 12 11 14 13 14 16 19 24 21 19 16 17 15 13 9 12 12 13 13 13 13 12 15
13 12 11 11 12 12 13 13 13 13 13 12 13 13 14 14 13 13 13 15 14 14 16 13 17 24 22 19 20 16 16 16 16 15 10 9 12 13 13 15 19 14 17
Wind_Direction
129 107 114 119 126 139 124 122 135 134 142 149 153 158 169 174 180 186 249 162 199 198 216 221 197 206 228 176 154 156 169 200 139 64 104 124 128 135 109 106 149 123 127
130 129 129 135 130 126 134 131 136 142 152 150 158 171 174 179 182 195 207 208 206 201 226 226 193 202 212 231 142 177 190 185 145 140 111 66 125 110 97 100 103 122 126
129 131 126 124 125 125 128 135 136 143 146 154 165 174 180 181 183 200 232 228 204 203 213 237 198 198 190 194 201 185 187 174 168 145 125 82 67 91 98 95 97 99 98
129 127 126 126 129 131 133 137 143 146 151 156 174 174 178 162 162 246 223 230 206 200 228 233 208 178 203 197 186 182 171 146 125 118 121 110 112 99 108 113 100 102 106
130 130 134 135 136 138 141 142 143 150 154 161 167 110 120 123 51 7 89 238 177 149 200 209 233 113 183 131 176 169 160 144 126 138 129 114 122 130 129 119 111 109 99
128 129 139 143 145 144 141 135 147 159 158 98 55 120 114 70 54 48 14 155 158 217 184 157 123 124 86 63 57 80 129 128 145 153 133 136 127 123 129 130 127 128 116
137 139 141 147 118 116 127 179 154 115 101 91 151 109 95 84 54 41 14 61 105 77 114 145 184 103 139 132 91 93 68 132 147 154 145 147 140 143 135 136 133 128 121
145 136 114 112 129 163 167 161 118 128 116 137 104 101 96 81 70 47 353 98 85 88 123 195 114 153 131 137 144 137 129 119 127 128 150 143 137 139 138 135 120 111 109
108 105 143 155 137 192 153 135 135 133 158 153 138 107 100 102 90 67 106 97 99 84 78 65 117 132 121 150 139 122 108 76 63 78 84 100 103 115 122 122 129 130 128
131 183 149 140 152 191 133 128 143 154 172 153 114 90 96 113 86 79 118 142 121 106 82 81 50 101 97 72 117 120 113 118 113 112 108 93 92 90 122 136 143 141 137
173 123 110 126 125 122 128 117 159 189 138 142 109 97 91 107 92 98 122 116 121 115 99 99 106 92 86 105 119 127 118 119 114 117 111 111 107 102 109 121 135 143 149
159 116 114 117 147 151 139 162 175 131 151 149 142 124 108 99 57 80 113 123 147 139 123 101 95 100 98 102 98 113 113 118 116 117 119 120 123 127 139 143 170 179 192
118 128 146 146 144 144 154 171 204 175 173 166 156 141 121 99 85 80 87 97 87 113 107 96 101 91 90 93 116 120 121 119 122 125 129 135 146 153 165 165 197 216 212
121 129 137 134 143 148 144 154 173 172 182 179 146 162 122 118 125 126 127 105 99 94 104 111 105 101 97 118 132 138 130 137 137 134 139 152 168 166 170 175 170 188 183
132 120 142 130 152 100 68 37 102 54 20 146 142 184 138 145 156 150 150 144 128 123 124 131 126 124 127 142 160 166 151 159 151 152 164 174 158 171 177 181 183 197 186
144 163 169 144 143 133 134 107 52 67 64 56 37 140 88 118 138 144 99 106 122 159 155 137 130 141 147 163 149 148 165 152 160 158 167 166 170 180 179 191 195 186 226
180 132 152 143 134 136 122 124 123 77 68 50 43 57 101 125 125 123 123 130 153 151 181 140 147 158 134 150 157 161 159 162 164 172 183 183 189 194 179 182 203 200 209
149 147 189 138 137 136 139 147 129 141 140 114 51 69 76 100 117 122 133 140 157 235 231 154 167 172 164 169 179 169 173 173 190 185 189 191 192 193 183 203 207 216 219
141 190 193 128 113 123 145 152 129 145 126 114 120 91 78 75 82 133 169 161 173 171 182 177 168 174 187 210 190 177 169 182 203 188 192 203 197 215 203 211 226 225 225
135 52 10 127 150 134 145 152 155 170 128 146 146 133 131 142 133 156 185 195 199 201 169 193 171 197 220 227 212 157 146 158 188 206 200 202 210 218 228 220 225 239 213
143 154 324 178 170 147 137 132 144 151 160 141 120 139 164 163 152 177 183 190 212 194 192 191 194 212 220 196 175 204 194 183 234 209 218 213 213 222 231 247 246 237 246
146 153 209 219 140 151 137 138 149 151 131 130 115 148 183 238 158 167 191 199 228 218 174 183 201 199 206 201 208 226 216 218 230 218 216 235 228 226 233 236 239 243 249
5 152 193 207 109 94 158 149 147 150 148 150 126 143 179 234 228 162 170 179 185 199 167 186 218 220 197 204 228 227 231 222 214 228 247 242 237 244 245 242 244 248 250
21 25 31 44 33 88 195 36 52 70 45 25 111 142 161 196 305 38 30 42 71 172 190 201 206 229 255 349 15 3 8 343 263 232 228 244 253 246 243 259 261 256 254
44 38 39 42 48 52 50 51 46 45 45 43 39 49 47 44 37 30 29 34 61 57 58 52 46 47 46 43 38 29 7 4 20 343 316 299 275 262 266 276 274 264 258
58 54 53 52 56 55 53 57 54 51 54 52 49 47 45 43 39 34 31 28 30 34 34 39 42 43 37 36 25 21 18 17 9 351 336 314 289 283 281 284 276 264 260